Regional Weather Roundup
Issued by NWS Goodland, KS

Home | Current Version | Previous Version | Text Only | Print | Product List | Glossary Off
Versions: 1 2 3 4 5 6 7 8 9 10 11 12 13 14 15 16 17 18 19 20 21 22 23 24 25 26 27 28 29 30 31 32 33 34 35 36 37 38 39 40 41 42 43 44 45 46 47 48 49 50

000
ASUS43 KGLD 180308
RWRGLD

GOODLAND FORECAST AREA HOURLY WEATHER ROUNDUP
NATIONAL WEATHER SERVICE GOODLAND KS
800 PM MST TUE JAN 17 2017

...OFFICIAL OBSERVATIONS...

CITY           SKY/WX    TMP DP  RH WIND       PRES   REMARKS
GOODLAND KS    CLEAR     34  30  85 SW7       30.04R
HILL CITY KS   CLEAR     31  27  85 SW5       30.10R
IMPERIAL NEB   CLOUDY    30  27  88 SW6       30.01S
MCCOOK NEB     CLEAR     29  25  85 SW7       30.03R
AKRON CO       CLOUDY    29  23  78 W10       30.00S WCI  20
BURLINGTON CO  CLEAR     32  28  85 S12       30.04R
LIMON CO       CLOUDY    20  19  96 NW3       30.02S
$$

...UNOFFICIAL OBSERVATIONS...

CITY           SKY/WX    TMP DP  RH WIND       PRES   REMARKS
LENORA KS        N/A     33  32  96 S9          N/A
NORTON KS      CLEAR     30  23  74 S6        30.06R
SHARON SPRINGS   N/A     33  29  86 S9          N/A
TRENTON NEB      N/A     33  32  96 SW5         N/A
KIT CARSON CO    N/A     29  26  89 CALM        N/A
YUMA CO        FAIR      23  21  93 W13       30.00S WCI  11
$$




USA.gov is the U.S. government's official web portal to all federal, state and local government web resources and services.